Weather History for Whiteville, NC

Change the Weather History Date:

Monday, January 21, 2013

  Actual Average (KLBT) Record (KLBT)
Temperature  
Mean Temperature 49 °F 43 °F  
Max Temperature 65 °F 54 °F 73 °F (1999)
Min Temperature 33 °F 33 °F 18 °F (2009)
Degree Days  
Heating Degree Days 16 22  
Month to date heating degree days 461  
Since 1 July heating degree days 1511  
Cooling Degree Days 0 0  
Month to date cooling degree days 0  
Year to date cooling degree days 0  
Moisture  
Dew Point 33 °F    
Average Humidity 58    
Maximum Humidity 95    
Minimum Humidity 27    
Precipitation  
Precipitation 0.00 in 0.09 in 0.82 in (2012)
Month to date precipitation 1.82  
Year to date precipitation 1.82  
Sea Level Pressure  
Sea Level Pressure 30.01 in    
Wind  
Wind Speed 2 mph (SSW)    
Max Wind Speed 14 mph    
Max Gust Speed 20 mph    
Visibility 10 miles    
Events      
T = Trace of Precipitation, MM = Missing Value Source: NWS Daily Summary

Daily Weather History Graph

Daily Weather History Graph

Search for Another Location

Airport:

Trip Planner

Search our weather history database for the weather conditions in past years. The results will help you decide how hot, cold, wet, or windy it might be!

Date:

Astronomy

Jan. 21, 2013 Rise Set
Actual Time 7:18 AM EST 5:34 PM EST
Civil Twilight 6:51 AM EST 6:01 PM EST
Nautical Twilight 6:21 AM EST 6:31 PM EST
Astronomical Twilight 5:51 AM EST 7:01 PM EST
Moon 1:13 PM EST (1/21) 2:44 AM EST (1/21)
Length of Visible Light 11h 09m
Length of Day
10h 15m
Waxing Gibbous, 75% of the Moon is Illuminated
Jan 21
Waxing Gibbous
Jan 26
Full
Feb 3
Last Quarter
Feb 10
New
Feb 17
First Quarter

Hourly Weather History & Observations

Time (EST) Temp. Dew Point Humidity Pressure Visibility Wind Dir Wind Speed Gust Speed Precip Events Conditions
12:15 AM 40.5 °F 36.9 °F 87% 30.08 in 10.0 mi Calm Calm - N/A   Clear
12:35 AM 39.6 °F 36.1 °F 88% 30.07 in 10.0 mi Calm Calm - N/A   Clear
12:55 AM 40.1 °F 37.4 °F 90% 30.08 in 10.0 mi Calm Calm - N/A   Clear
1:15 AM 41.2 °F 36.7 °F 84% 30.07 in 10.0 mi Calm Calm - N/A   Clear
1:35 AM 39.4 °F 36.5 °F 89% 30.07 in 10.0 mi Calm Calm - N/A   Clear
1:55 AM 38.3 °F 35.6 °F 90% 30.07 in 10.0 mi Calm Calm - N/A   Clear
2:15 AM 38.1 °F 35.4 °F 90% 30.07 in 10.0 mi Calm Calm - N/A   Clear
2:35 AM 38.1 °F 36.3 °F 93% 30.07 in 10.0 mi Calm Calm - N/A   Clear
2:55 AM 36.5 °F 34.7 °F 93% 30.07 in 10.0 mi Calm Calm - N/A   Clear
3:15 AM 37.4 °F 35.2 °F 92% 30.07 in 10.0 mi Calm Calm - N/A   Clear
3:35 AM 36.9 °F 35.4 °F 95% 30.07 in 10.0 mi Calm Calm - N/A   Clear
3:55 AM 35.4 °F 33.8 °F 94% 30.06 in 10.0 mi Calm Calm - N/A   Clear
4:15 AM 34.5 °F 33.1 °F 94% 30.06 in 10.0 mi Calm Calm - N/A   Clear
4:35 AM 34.3 °F 33.1 °F 95% 30.06 in 10.0 mi Calm Calm - N/A   Clear
4:55 AM 34.7 °F 33.3 °F 94% 30.05 in 10.0 mi Calm Calm - N/A   Clear
5:15 AM 34.7 °F 33.3 °F 94% 30.05 in 10.0 mi Calm Calm - N/A   Clear
5:35 AM 34.5 °F 32.9 °F 94% 30.05 in 10.0 mi Calm Calm - N/A   Clear
5:55 AM 33.3 °F 32.0 °F 95% 30.06 in 10.0 mi Calm Calm - N/A   Clear
6:15 AM 33.6 °F 32.2 °F 94% 30.06 in 10.0 mi Calm Calm - N/A   Clear
6:35 AM 33.6 °F 32.2 °F 94% 30.06 in 10.0 mi Calm Calm - N/A   Clear
6:55 AM 34.0 °F 32.7 °F 95% 30.06 in 10.0 mi Calm Calm - N/A   Clear
7:15 AM 33.8 °F 32.2 °F 94% 30.06 in 10.0 mi Calm Calm - N/A   Clear
7:35 AM 34.0 °F 32.5 °F 94% 30.06 in 10.0 mi Calm Calm - N/A   Clear
7:55 AM 35.8 °F 32.7 °F 89% 30.07 in 10.0 mi Calm Calm - N/A   Clear
8:15 AM 37.9 °F 35.2 °F 90% 30.07 in 10.0 mi Calm Calm - N/A   Clear
8:35 AM 41.9 °F 34.9 °F 76% 30.07 in 10.0 mi Calm Calm - N/A   Clear
8:55 AM 45.0 °F 35.4 °F 69% 30.07 in 10.0 mi Calm Calm - N/A   Clear
9:15 AM 47.5 °F 35.1 °F 62% 30.07 in 10.0 mi ENE 4.6 mph - N/A   Clear
9:35 AM 49.3 °F 33.1 °F 54% 30.07 in 10.0 mi ENE 4.6 mph - N/A   Clear
9:55 AM 51.3 °F 32.5 °F 49% 30.08 in 10.0 mi East 5.8 mph - N/A   Clear
10:15 AM 53.6 °F 25.2 °F 33% 30.08 in 10.0 mi East 6.9 mph - N/A   Clear
10:35 AM 55.2 °F 24.8 °F 31% 30.07 in 10.0 mi East 6.9 mph - N/A   Clear
10:55 AM 56.7 °F 24.6 °F 29% 30.07 in 10.0 mi SSE 5.8 mph - N/A   Clear
11:15 AM 56.7 °F 28.0 °F 33% 30.06 in 10.0 mi South 5.8 mph - N/A   Clear
11:35 AM 57.9 °F 31.1 °F 36% 30.04 in 10.0 mi SSE 8.1 mph - N/A   Clear
11:55 AM 60.4 °F 33.3 °F 36% 30.03 in 10.0 mi SSE 6.9 mph - N/A   Clear
12:15 PM 61.0 °F 34.5 °F 37% 30.00 in 10.0 mi South 8.1 mph - N/A   Clear
12:35 PM 62.2 °F 36.5 °F 38% 29.98 in 10.0 mi South 8.1 mph - N/A   Clear
12:55 PM 63.3 °F 36.5 °F 37% 29.97 in 10.0 mi SSW 9.2 mph - N/A   Clear
1:15 PM 65.1 °F 35.1 °F 33% 29.96 in 10.0 mi SSW 11.5 mph 19.6 mph N/A   Clear
1:35 PM 64.6 °F 33.8 °F 32% 29.95 in 10.0 mi SSW 13.8 mph 17.3 mph N/A   Clear
1:55 PM 65.3 °F 33.4 °F 31% 29.93 in 10.0 mi SW 13.8 mph - N/A   Clear
2:15 PM 65.3 °F 33.1 °F 30% 29.93 in 10.0 mi SSW 11.5 mph - N/A   Clear
2:35 PM 65.3 °F 32.0 °F 29% 29.93 in 10.0 mi SSW 13.8 mph 19.6 mph N/A   Clear
2:55 PM 65.1 °F 31.3 °F 28% 29.92 in 10.0 mi SW 9.2 mph - N/A   Clear
3:15 PM 65.1 °F 31.1 °F 28% 29.91 in 10.0 mi SW 6.9 mph - N/A   Clear
3:35 PM 64.8 °F 29.8 °F 27% 29.91 in 10.0 mi SW 8.1 mph - N/A   Clear
3:55 PM 64.4 °F 29.5 °F 27% 29.91 in 10.0 mi WSW 6.9 mph - N/A   Clear
4:15 PM 64.0 °F 30.2 °F 28% 29.91 in 10.0 mi WSW 4.6 mph - N/A   Clear
4:35 PM 63.9 °F 30.2 °F 28% 29.91 in 10.0 mi SW 8.1 mph - N/A   Clear
4:55 PM 63.0 °F 29.7 °F 29% 29.91 in 10.0 mi SW 4.6 mph - N/A   Clear
5:15 PM 61.2 °F 30.7 °F 32% 29.92 in 10.0 mi WSW 4.6 mph - N/A   Clear
5:35 PM 60.3 °F 31.5 °F 34% 29.92 in 10.0 mi Calm Calm - N/A   Clear
5:55 PM 59.4 °F 32.0 °F 36% 29.93 in 10.0 mi Calm Calm - N/A   Clear
6:15 PM 57.7 °F 32.9 °F 39% 29.93 in 10.0 mi Calm Calm - N/A   Clear
6:35 PM 57.4 °F 32.0 °F 38% 29.94 in 10.0 mi Calm Calm - N/A   Clear
6:55 PM 56.1 °F 32.4 °F 41% 29.94 in 10.0 mi Calm Calm - N/A   Clear
7:15 PM 54.3 °F 33.4 °F 45% 29.94 in 10.0 mi Calm Calm - N/A   Clear
7:55 PM 52.5 °F 32.7 °F 47% 29.95 in 10.0 mi Calm Calm - N/A   Clear
8:15 PM 51.8 °F 32.5 °F 48% 29.95 in 10.0 mi SW 3.5 mph - N/A   Clear
8:35 PM 52.2 °F 32.0 °F 46% 29.95 in 10.0 mi Calm Calm - N/A   Clear
8:55 PM 50.0 °F 32.9 °F 52% 29.96 in 10.0 mi SSW 4.6 mph - N/A   Clear
9:15 PM 49.6 °F 32.7 °F 52% 29.96 in 10.0 mi SW 3.5 mph - N/A   Clear
9:35 PM 50.0 °F 32.0 °F 50% 29.96 in 10.0 mi SW 4.6 mph - N/A   Clear
9:55 PM 51.8 °F 31.3 °F 46% 29.96 in 10.0 mi Calm Calm - N/A   Clear
10:15 PM 50.9 °F 31.5 °F 47% 29.97 in 10.0 mi Calm Calm - N/A   Clear
10:35 PM 50.2 °F 31.6 °F 49% 29.97 in 10.0 mi Calm Calm - N/A   Clear
10:55 PM 50.0 °F 31.5 °F 49% 29.98 in 10.0 mi West 4.6 mph - N/A   Clear
11:15 PM 52.0 °F 30.7 °F 44% 29.98 in 10.0 mi West 4.6 mph - N/A   Clear
11:35 PM 52.3 °F 29.8 °F 42% 29.99 in 10.0 mi Calm Calm - N/A   Clear
11:55 PM 51.8 °F 29.1 °F 42% 29.99 in 10.0 mi Calm Calm - N/A   Clear